Time,TemperatureF,DewpointF,PressureIn,WindDirection,WindDirectionDegrees,WindSpeedMPH,WindSpeedGustMPH,Humidity,HourlyPrecipIn,Conditions,Clouds,dailyrainin,SoftwareType,DateUTC
2013-06-13 00:02:00,63.0,62.0,29.70,NE,46,3.0,5.0,98,0.04,,,0.46,,2013-06-13 05:02:00,
2013-06-13 00:12:00,63.0,62.0,29.70,NE,46,3.0,5.0,98,0.04,,,0.46,,2013-06-13 05:12:00,
2013-06-13 00:24:00,60.0,59.0,29.68,NE,44,3.0,9.0,97,0.03,,,0.48,,2013-06-13 05:24:00,
2013-06-13 00:33:00,60.0,59.0,29.68,NE,44,3.0,9.0,97,0.03,,,0.48,,2013-06-13 05:33:00,
2013-06-13 00:43:00,60.0,59.0,29.67,ENE,58,0.0,5.0,97,0.03,,,0.49,,2013-06-13 05:43:00,
2013-06-13 00:53:00,60.0,59.0,29.67,ENE,58,0.0,5.0,97,0.03,,,0.49,,2013-06-13 05:53:00,
2013-06-13 01:02:00,60.0,59.0,29.67,ENE,58,0.0,5.0,97,0.03,,,0.49,,2013-06-13 06:02:00,
2013-06-13 01:11:00,60.0,59.0,29.72,WSW,241,0.0,0.0,96,0.02,,,0.49,,2013-06-13 06:11:00,
2013-06-13 01:22:00,60.0,59.0,29.72,WSW,241,0.0,0.0,96,0.02,,,0.49,,2013-06-13 06:22:00,
2013-06-13 01:33:00,60.0,59.0,29.72,WSW,241,0.0,0.0,96,0.02,,,0.49,,2013-06-13 06:33:00,
2013-06-13 01:44:00,60.0,59.0,29.72,WSW,241,0.0,0.0,96,0.02,,,0.49,,2013-06-13 06:44:00,
2013-06-13 01:52:00,60.0,59.0,29.72,WSW,241,0.0,0.0,96,0.02,,,0.49,,2013-06-13 06:52:00,
2013-06-13 02:12:00,58.0,57.0,29.73,North,11,2.0,2.0,95,0.02,,,0.51,,2013-06-13 07:12:00,
2013-06-13 02:22:00,58.0,57.0,29.73,North,11,2.0,2.0,95,0.02,,,0.51,,2013-06-13 07:22:00,
2013-06-13 02:33:00,58.0,57.0,29.73,North,11,2.0,2.0,95,0.02,,,0.51,,2013-06-13 07:33:00,
2013-06-13 02:42:00,58.0,56.0,29.73,NNE,32,0.0,2.0,94,0.02,,,0.52,,2013-06-13 07:42:00,
2013-06-13 02:52:00,58.0,56.0,29.74,NNE,32,0.0,0.0,94,0.01,,,0.52,,2013-06-13 07:52:00,
2013-06-13 03:01:00,58.0,56.0,29.74,NNE,32,0.0,0.0,94,0.01,,,0.52,,2013-06-13 08:01:00,
2013-06-13 03:11:00,58.0,56.0,29.74,NNE,32,0.0,0.0,94,0.01,,,0.52,,2013-06-13 08:11:00,
2013-06-13 03:22:00,58.0,56.0,29.74,NNE,32,0.0,0.0,94,0.01,,,0.52,,2013-06-13 08:22:00,
2013-06-13 03:32:00,58.0,56.0,29.74,NNE,32,0.0,0.0,94,0.01,,,0.52,,2013-06-13 08:32:00,
2013-06-13 03:52:00,56.0,54.0,29.77,NNE,32,0.0,0.0,93,0.01,,,0.53,,2013-06-13 08:52:00,
2013-06-13 04:02:00,56.0,54.0,29.77,NNE,32,0.0,0.0,93,0.01,,,0.53,,2013-06-13 09:02:00,
2013-06-13 04:12:00,56.0,54.0,29.77,NNE,32,0.0,0.0,93,0.01,,,0.53,,2013-06-13 09:12:00,
2013-06-13 04:22:00,56.0,54.0,29.77,NNE,32,0.0,0.0,93,0.01,,,0.53,,2013-06-13 09:22:00,
2013-06-13 04:32:00,56.0,54.0,29.77,NNE,32,0.0,0.0,93,0.01,,,0.53,,2013-06-13 09:32:00,
2013-06-13 04:42:00,56.0,54.0,29.78,NNE,32,0.0,0.0,94,0.01,,,0.54,,2013-06-13 09:42:00,
2013-06-13 04:52:00,56.0,54.0,29.79,NNE,32,0.0,0.0,94,0.01,,,0.54,,2013-06-13 09:52:00,
2013-06-13 05:01:00,56.0,54.0,29.79,NNE,32,0.0,0.0,94,0.01,,,0.54,,2013-06-13 10:01:00,
2013-06-13 05:11:00,56.0,54.0,29.80,NNE,32,0.0,2.0,94,0.02,,,0.54,,2013-06-13 10:11:00,
2013-06-13 05:22:00,57.0,55.0,29.81,NNE,32,0.0,0.0,94,0.01,,,0.55,,2013-06-13 10:22:00,
2013-06-13 05:33:00,57.0,55.0,29.81,NNE,32,0.0,0.0,94,0.01,,,0.55,,2013-06-13 10:33:00,
2013-06-13 05:43:00,57.0,55.0,29.81,NNE,32,0.0,0.0,94,0.01,,,0.55,,2013-06-13 10:43:00,
2013-06-13 05:53:00,57.0,55.0,29.81,NNE,32,0.0,0.0,94,0.01,,,0.55,,2013-06-13 10:53:00,
2013-06-13 06:02:00,57.0,56.0,29.82,NNE,32,0.0,0.0,95,0.01,,,0.55,,2013-06-13 11:02:00,
2013-06-13 06:11:00,57.0,56.0,29.82,NNE,32,0.0,0.0,95,0.01,,,0.55,,2013-06-13 11:11:00,
2013-06-13 06:23:00,57.0,56.0,29.82,NNE,32,0.0,0.0,95,0.01,,,0.55,,2013-06-13 11:23:00,
2013-06-13 06:32:00,57.0,56.0,29.83,NNE,32,0.0,0.0,95,0.01,,,0.56,,2013-06-13 11:32:00,
2013-06-13 06:42:00,57.0,56.0,29.84,NNE,32,0.0,0.0,95,0.01,,,0.56,,2013-06-13 11:42:00,
2013-06-13 06:52:00,57.0,56.0,29.84,NNE,32,0.0,0.0,95,0.01,,,0.56,,2013-06-13 11:52:00,
2013-06-13 07:01:00,58.0,57.0,29.85,NNE,32,0.0,0.0,96,0.01,,,0.56,,2013-06-13 12:01:00,
2013-06-13 07:11:00,58.0,57.0,29.85,NNE,32,0.0,0.0,96,0.01,,,0.56,,2013-06-13 12:11:00,
2013-06-13 07:22:00,58.0,57.0,29.85,NNE,32,0.0,0.0,96,0.01,,,0.56,,2013-06-13 12:22:00,
2013-06-13 07:35:00,58.0,57.0,29.85,NNE,32,0.0,0.0,96,0.01,,,0.56,,2013-06-13 12:35:00,
2013-06-13 07:42:00,58.0,57.0,29.85,NNE,32,0.0,0.0,96,0.01,,,0.56,,2013-06-13 12:42:00,
2013-06-13 08:01:00,61.0,57.0,29.87,North,360,0.0,2.0,88,0.01,,,0.57,,2013-06-13 13:01:00,
2013-06-13 08:11:00,62.0,58.0,29.88,North,360,0.0,1.0,86,0.01,,,0.57,,2013-06-13 13:11:00,
2013-06-13 08:22:00,62.0,58.0,29.89,North,355,2.0,2.0,86,0.01,,,0.57,,2013-06-13 13:22:00,
2013-06-13 08:32:00,62.0,58.0,29.89,North,355,2.0,2.0,86,0.01,,,0.57,,2013-06-13 13:32:00,
2013-06-13 08:43:00,62.0,58.0,29.89,North,355,2.0,2.0,86,0.01,,,0.57,,2013-06-13 13:43:00,
2013-06-13 08:53:00,62.0,58.0,29.89,North,355,2.0,2.0,86,0.01,,,0.57,,2013-06-13 13:53:00,
2013-06-13 09:02:00,62.0,58.0,29.89,North,355,2.0,2.0,86,0.01,,,0.57,,2013-06-13 14:02:00,
2013-06-13 09:53:00,68.0,56.0,29.91,NE,56,0.0,1.0,66,0.01,,,0.59,,2013-06-13 14:53:00,
2013-06-13 10:02:00,69.0,55.0,29.91,NE,35,8.0,9.0,62,0.01,,,0.59,,2013-06-13 15:02:00,
2013-06-13 10:12:00,69.0,54.0,29.91,NE,44,3.0,6.0,59,0.01,,,0.59,,2013-06-13 15:12:00,
2013-06-13 10:22:00,70.0,55.0,29.91,NE,42,1.0,4.0,58,0.01,,,0.59,,2013-06-13 15:22:00,
2013-06-13 10:33:00,71.0,55.0,29.91,NE,36,1.0,5.0,58,0.01,,,0.59,,2013-06-13 15:33:00,
2013-06-13 10:43:00,71.0,54.0,29.91,NE,44,3.0,5.0,56,0.00,,,0.59,,2013-06-13 15:43:00,
2013-06-13 10:53:00,71.0,54.0,29.91,NE,44,3.0,5.0,56,0.00,,,0.59,,2013-06-13 15:53:00,
2013-06-13 11:02:00,73.0,56.0,29.92,NE,39,0.0,1.0,56,0.01,,,0.60,,2013-06-13 16:02:00,
2013-06-13 11:12:00,73.0,56.0,29.92,NE,39,0.0,1.0,56,0.01,,,0.60,,2013-06-13 16:12:00,
2013-06-13 11:22:00,74.0,54.0,29.93,NNW,348,1.0,4.0,50,0.01,,,0.60,,2013-06-13 16:22:00,
2013-06-13 11:33:00,74.0,54.0,29.93,NNW,348,1.0,4.0,50,0.01,,,0.60,,2013-06-13 16:33:00,
2013-06-13 11:43:00,74.0,54.0,29.93,NE,43,3.0,5.0,50,0.02,,,0.61,,2013-06-13 16:43:00,
2013-06-13 11:53:00,74.0,54.0,29.93,NNW,341,0.0,3.0,50,0.02,,,0.61,,2013-06-13 16:53:00,
2013-06-13 12:02:00,74.0,54.0,29.93,NNW,341,0.0,3.0,50,0.02,,,0.61,,2013-06-13 17:02:00,
2013-06-13 12:11:00,74.0,56.0,29.93,North,5,2.0,2.0,53,0.02,,,0.62,,2013-06-13 17:11:00,
2013-06-13 12:24:00,75.0,55.0,29.93,NNW,340,0.0,1.0,50,0.02,,,0.62,,2013-06-13 17:24:00,
2013-06-13 12:33:00,75.0,55.0,29.93,NNW,340,0.0,1.0,50,0.02,,,0.62,,2013-06-13 17:33:00,
2013-06-13 12:43:00,75.0,55.0,29.94,NNE,21,2.0,3.0,50,0.02,,,0.63,,2013-06-13 17:43:00,
2013-06-13 12:53:00,74.0,54.0,29.94,NE,36,0.0,4.0,50,0.02,,,0.63,,2013-06-13 17:53:00,
2013-06-13 13:02:00,74.0,55.0,29.94,NE,50,1.0,2.0,51,0.02,,,0.63,,2013-06-13 18:02:00,
2013-06-13 13:11:00,74.0,55.0,29.94,NE,50,1.0,2.0,51,0.02,,,0.63,,2013-06-13 18:11:00,
2013-06-13 13:22:00,74.0,55.0,29.94,NE,50,1.0,2.0,51,0.02,,,0.63,,2013-06-13 18:22:00,
2013-06-13 13:33:00,74.0,55.0,29.94,NE,50,1.0,2.0,51,0.02,,,0.63,,2013-06-13 18:33:00,
2013-06-13 13:43:00,75.0,57.0,29.96,NNE,30,1.0,4.0,53,0.01,,,0.64,,2013-06-13 18:43:00,
2013-06-13 13:52:00,75.0,56.0,29.96,NNE,29,2.0,2.0,52,0.02,,,0.65,,2013-06-13 18:52:00,
2013-06-13 14:01:00,75.0,57.0,29.96,West,264,2.0,2.0,54,0.02,,,0.65,,2013-06-13 19:01:00,
2013-06-13 14:11:00,75.0,56.0,29.96,North,10,2.0,4.0,52,0.01,,,0.65,,2013-06-13 19:11:00,
2013-06-13 14:22:00,75.0,57.0,29.96,North,360,2.0,2.0,54,0.02,,,0.66,,2013-06-13 19:22:00,
2013-06-13 14:33:00,75.0,57.0,29.96,North,360,2.0,2.0,54,0.02,,,0.66,,2013-06-13 19:33:00,
2013-06-13 14:43:00,73.0,57.0,29.97,NE,41,0.0,1.0,57,0.02,,,0.66,,2013-06-13 19:43:00,
2013-06-13 14:53:00,75.0,58.0,29.96,North,11,0.0,0.0,55,0.01,,,0.66,,2013-06-13 19:53:00,
2013-06-13 15:01:00,75.0,57.0,29.96,NE,39,0.0,1.0,53,0.02,,,0.67,,2013-06-13 20:01:00,
2013-06-13 15:11:00,75.0,56.0,29.97,NE,39,0.0,6.0,51,0.02,,,0.67,,2013-06-13 20:11:00,
2013-06-13 15:22:00,75.0,56.0,29.97,NE,39,0.0,6.0,51,0.02,,,0.67,,2013-06-13 20:22:00,
2013-06-13 15:33:00,75.0,56.0,29.97,NE,39,0.0,6.0,51,0.02,,,0.67,,2013-06-13 20:33:00,
2013-06-13 15:44:00,75.0,56.0,29.97,NE,39,0.0,6.0,51,0.02,,,0.67,,2013-06-13 20:44:00,
2013-06-13 15:53:00,74.0,56.0,29.96,NE,51,0.0,3.0,54,0.02,,,0.68,,2013-06-13 20:53:00,
2013-06-13 16:02:00,74.0,56.0,29.96,NE,51,0.0,3.0,54,0.02,,,0.68,,2013-06-13 21:02:00,
2013-06-13 16:11:00,74.0,56.0,29.96,NE,51,0.0,3.0,54,0.02,,,0.68,,2013-06-13 21:11:00,
2013-06-13 16:22:00,74.0,56.0,29.96,NE,51,0.0,3.0,54,0.02,,,0.68,,2013-06-13 21:22:00,
2013-06-13 16:34:00,75.0,55.0,29.97,ENE,65,2.0,3.0,50,0.02,,,0.69,,2013-06-13 21:34:00,
2013-06-13 16:43:00,75.0,55.0,29.97,ENE,65,2.0,3.0,50,0.02,,,0.69,,2013-06-13 21:43:00,
2013-06-13 16:52:00,73.0,53.0,29.97,East,91,3.0,10.0,49,0.02,,,0.70,,2013-06-13 21:52:00,
2013-06-13 17:02:00,74.0,52.0,29.97,NE,55,3.0,4.0,46,0.02,,,0.70,,2013-06-13 22:02:00,
2013-06-13 17:11:00,75.0,53.0,29.97,NNE,22,7.0,9.0,46,0.02,,,0.70,,2013-06-13 22:11:00,
2013-06-13 17:22:00,75.0,53.0,29.97,NNE,22,7.0,9.0,46,0.02,,,0.70,,2013-06-13 22:22:00,
2013-06-13 17:33:00,75.0,52.0,29.98,NE,55,3.0,8.0,45,0.01,,,0.70,,2013-06-13 22:33:00,
2013-06-13 17:43:00,75.0,52.0,29.98,NE,55,3.0,8.0,45,0.01,,,0.70,,2013-06-13 22:43:00,
2013-06-13 17:52:00,75.0,52.0,29.98,NE,34,1.0,5.0,45,0.02,,,0.71,,2013-06-13 22:52:00,
2013-06-13 18:02:00,75.0,52.0,29.98,NE,34,1.0,5.0,45,0.02,,,0.71,,2013-06-13 23:02:00,
2013-06-13 18:11:00,74.0,53.0,29.97,East,86,3.0,7.0,48,0.01,,,0.71,,2013-06-13 23:11:00,
2013-06-13 18:22:00,74.0,57.0,29.98,ENE,77,3.0,3.0,55,0.02,,,0.72,,2013-06-13 23:22:00,
2013-06-13 18:32:00,72.0,55.0,29.98,East,89,1.0,6.0,56,0.02,,,0.72,,2013-06-13 23:32:00,
2013-06-13 18:43:00,72.0,56.0,29.98,East,89,0.0,4.0,58,0.01,,,0.67,,2013-06-13 23:43:00,
2013-06-13 18:52:00,70.0,55.0,29.98,East,79,3.0,6.0,59,0.01,,,0.63,,2013-06-13 23:52:00,
2013-06-13 19:01:00,70.0,55.0,29.98,East,79,3.0,6.0,59,0.01,,,0.63,,2013-06-14 00:01:00,
2013-06-13 19:12:00,69.0,55.0,29.98,East,80,3.0,6.0,62,0.01,,,0.62,,2013-06-14 00:12:00,
2013-06-13 19:22:00,69.0,55.0,29.99,ENE,74,1.0,4.0,62,0.02,,,0.62,,2013-06-14 00:22:00,
2013-06-13 19:34:00,69.0,55.0,29.99,ENE,74,1.0,4.0,62,0.02,,,0.62,,2013-06-14 00:34:00,
2013-06-13 19:43:00,69.0,55.0,29.99,ENE,74,1.0,4.0,62,0.02,,,0.62,,2013-06-14 00:43:00,
2013-06-13 19:53:00,69.0,55.0,29.99,ENE,74,1.0,4.0,62,0.02,,,0.62,,2013-06-14 00:53:00,
2013-06-13 20:22:00,66.0,54.0,30.01,ESE,120,0.0,1.0,66,0.01,,,0.48,,2013-06-14 01:22:00,
2013-06-13 20:33:00,66.0,54.0,30.01,ESE,120,0.0,1.0,66,0.01,,,0.48,,2013-06-14 01:33:00,
2013-06-13 20:43:00,66.0,54.0,30.01,ESE,120,0.0,1.0,66,0.01,,,0.48,,2013-06-14 01:43:00,
2013-06-13 20:52:00,64.0,54.0,30.01,ESE,112,0.0,2.0,69,0.01,,,0.43,,2013-06-14 01:52:00,
2013-06-13 21:00:00,63.0,54.0,30.02,ESE,112,0.0,0.0,73,0.01,,,0.38,,2013-06-14 02:00:00,
2013-06-13 21:02:00,64.0,54.0,30.01,ESE,112,0.0,0.0,70,0.01,,,0.40,,2013-06-14 02:02:00,
2013-06-13 21:11:00,64.0,55.0,30.02,ESE,112,0.0,0.0,72,0.01,,,0.39,,2013-06-14 02:11:00,
2013-06-13 21:22:00,63.0,54.0,30.02,ESE,112,0.0,0.0,73,0.01,,,0.38,,2013-06-14 02:22:00,
2013-06-13 21:32:00,63.0,54.0,30.02,ESE,112,0.0,0.0,73,0.01,,,0.38,,2013-06-14 02:32:00,
2013-06-13 21:43:00,63.0,54.0,30.02,ESE,112,0.0,0.0,73,0.01,,,0.38,,2013-06-14 02:43:00,
2013-06-13 21:52:00,63.0,54.0,30.02,ESE,112,0.0,0.0,73,0.01,,,0.38,,2013-06-14 02:52:00,
2013-06-13 22:12:00,60.0,51.0,30.04,East,84,0.0,4.0,73,0.00,,,0.34,,2013-06-14 03:12:00,
2013-06-13 22:22:00,59.0,51.0,30.04,East,84,0.0,3.0,74,0.01,,,0.34,,2013-06-14 03:22:00,
2013-06-13 22:34:00,59.0,51.0,30.05,East,84,0.0,1.0,76,0.01,,,0.33,,2013-06-14 03:34:00,
2013-06-13 22:43:00,58.0,51.0,30.05,East,84,0.0,1.0,77,0.01,,,0.32,,2013-06-14 03:43:00,
2013-06-13 22:52:00,58.0,51.0,30.05,East,84,0.0,1.0,78,0.01,,,0.32,,2013-06-14 03:52:00,
2013-06-13 23:01:00,58.0,52.0,30.05,East,84,0.0,1.0,80,0.01,,,0.31,,2013-06-14 04:01:00,
2013-06-13 23:12:00,58.0,52.0,30.05,East,84,0.0,2.0,80,0.01,,,0.31,,2013-06-14 04:12:00,
2013-06-13 23:22:00,58.0,52.0,30.05,East,84,0.0,2.0,80,0.01,,,0.31,,2013-06-14 04:22:00,
2013-06-13 23:33:00,58.0,52.0,30.05,East,84,4.0,5.0,80,0.00,,,0.30,,2013-06-14 04:33:00,
2013-06-13 23:43:00,58.0,52.0,30.06,East,84,0.0,4.0,80,0.00,,,0.29,,2013-06-14 04:43:00,
2013-06-13 23:53:00,58.0,52.0,30.06,East,84,0.0,4.0,80,0.00,,,0.29,,2013-06-14 04:53:00,